www.pogodaiklimat.ru

Погода и климат >> Архив погоды >> Россия >> Сахалинская область >> Москальво


АРХИВ ПОГОДЫ в Москальво

Время (UTC), дата Ветер
(напр.,м/с)
 
Видим.   Явления Облачность Т
(С)
Тd
(С)
f
(%)
Тe
(С)
Тes
(С)
Комфортность P
(гПа)
Po
(гПа)
Тmin
(С)
Tmax
(С)
R
(мм)
R24
(мм)
S
(см)
12 12.08 ЮВ 3-5
{9}
20 км 9/3 300 м
[St Cs]
+12.9 +12.7 99 +11 +11 1008.0 1007.2
15 12.08 ЮВ 2-2
{5}
20 км 10/10 300 м
[St]
+11.9 +11.7 99 +11 +11 1007.4 1006.7
18 12.08 ЮВ 3-4
{4}
20 км 10/10 300 м
[St]
+10.8 +10.8 100 +9 +9 1007.8 1007.0
21 12.08 Ю 3-5
{5}
20 км 9/0
[Cs]
+12.0 +12.0 100 +10 +11 1008.0 1007.2 +10.3
00 13.08 Ю 3-4
{5}
20 км 9/0
[Ac As]
+17.2 +14.8 86 +17 +20 1008.0 1007.3
03 13.08 С 3-5
{5}
4000 м мгла 9/0
[Ac As]
+19.9 +15.2 74 +22 +26 комфорт 1008.3 1007.6
06 13.08 С 3-5
{6}
20 км 9/0
[Ac lent Cs]
+19.7 +15.1 75 +22 +25 комфорт 1008.3 1007.5
09 13.08 С 3-3
{6}
20 км 9/0
[Ac As]
+15.5 +14.3 93 +15 +15 1008.8 1008.0 +21.0
12 13.08 С 3-3
{4}
20 км 10/10 300 м
[St]
+14.3 +14.3 100 +13 +13 1009.7 1009.0
15 13.08 СЗ 3-3
{4}
20 км 10/10 300 м
[St]
+14.6 +14.6 100 +14 +14 1009.8 1009.0
18 13.08 В 1-1
{3}
20 км 10/10 300 м
[St]
+13.7 +13.7 100 +14 +14 1009.9 1009.2
21 13.08 СВ 2-3
{4}
20 км 10/10 300 м
[St]
+14.3 +14.0 98 +14 +14 1010.9 1010.2 +13.5
00 14.08 ЮВ 1-3
{4}
4000 м дымка 10/10 300 м
[St]
+14.8 +14.1 96 +15 +15 1011.4 1010.6
03 14.08 В 2-4
{4}
20 км 10/10 300 м
[St]
+17.1 +14.5 85 +17 +17 1011.4 1010.6
06 14.08 СЗ 3-4
{6}
20 км 9/1 300 м
[Cb cap Cs]
+19.5 +14.4 72 +21 +25 комфорт 1011.3 1010.5
09 14.08 В 4-6
{7}
20 км 9/1 300 м
[Cb cap Ac As]
+14.4 +13.4 94 +13 +13 1012.1 1011.3 +20.1
12 14.08 В 5-7
{8}
20 км 10/10 300 м
[St]
+12.6 +12.6 100 +10 +10 1012.7 1011.9
15 14.08 В 3-5
{7}
20 км 10/10 300 м
[St]
+12.9 +12.9 100 +11 +11 1012.8 1012.0
18 14.08 В 3-4
{5}
20 км 10/10 300 м
[St]
+13.2 +13.2 100 +12 +12 1012.8 1012.1
21 14.08 В 4-6
{6}
2000 м дымка 10/10 300 м
[St]
+13.7 +13.7 100 +12 +12 1013.1 1012.3 +12.6
00 15.08 ЮВ 5-8
{8}
20 км 10/10 300 м
[St]
+16.1 +15.1 94 +15 +15 1013.0 1012.3
03 15.08 ЮВ 4-5
{8}
20 км 9/0
[Cs]
+20.0 +14.3 70 +22 +29 комфорт 1012.9 1012.2
06 15.08 В 6-9
{9}
20 км 9/0
[Cs]
+16.9 +12.9 77 +16 +18 1012.9 1012.2
09 15.08 В 6-8
{9}
20 км 10/10 300 м
[St]
+13.7 +13.3 97 +11 +11 1013.5 1012.7 +20.9
12 15.08 В 4-6
{9}
20 км 10/10 300 м
[St]
+12.6 +12.6 100 +11 +11 1014.1 1013.3
15 15.08 В 5-7
{9}
20 км 10/10 300 м
[St]
+12.7 +12.7 100 +10 +10 1014.2 1013.5
18 15.08 В 6-9
{9}
20 км 10/10 300 м
[St]
+13.2 +13.2 100 +11 +11 1014.2 1013.5
21 15.08 ЮВ 5-9
{9}
20 км 10/10 300 м
[St]
+13.3 +13.1 99 +11 +11 1015.3 1014.6 +12.6
00 16.08 В 7-9
{10}
20 км 9/9 300 м
[St]
+15.0 +13.3 90 +13 +13 1015.9 1015.1
03 16.08 В 6-9
{10}
20 км 9/4 300 м
[St Cs]
+17.4 +11.8 70 +17 +19 1016.3 1015.6
06 16.08 В 6-9
{10}
20 км 9/9 300 м
[Cb cap]
+15.5 +11.7 78 +14 +14 1016.7 1016.0
09 16.08 В 7-9
{10}
20 км 10/10 300 м
[St]
+12.3 +11.5 95 +9 +9 1016.7 1016.0 +17.6
12 16.08 В 6-8
{10}
20 км 10/10 300 м
[St]
+11.9 +11.5 97 +9 +9 1017.3 1016.5
15 16.08 В 5-7
{9}
20 км 10/10 300 м
[St]
+11.0 +11.0 100 +8 +8 1016.6 1015.8
18 16.08 В 4-6
{8}
20 км 9/0
[Ac As]
+10.5 +10.3 99 +8 +8 1015.8 1015.0
21 16.08 В 4-5
{6}
20 км 9/0
[Ac As]
+12.2 +10.9 92 +10 +10 1015.6 1014.8 +10.1
00 17.08 В 8-12
{14}
20 км 9/0
[Ac As]
+16.6 +7.3 54 +15 +16 1015.1 1014.3
03 17.08 В 7-11
{13}
20 км 10/0
[Ac As]
+16.3 +7.3 55 +15 +16 1014.6 1013.9
06 17.08 СВ 6-9
{11}
20 км 10/0
[Ac As]
+13.6 +10.3 80 +11 +12 1014.0 1013.2
09 17.08 В 6-10
{9}
20 км 10/0
[Ac As]
+12.9 +10.2 84 +10 +10 1013.3 1012.5 +18.1
12 17.08 В 4-5
{10}
20 км 10/0
[Ac As]
+11.7 +9.8 88 +9 +9 1014.3 1013.5
15 17.08 В 4-5
{7}
20 км 10/10 300 м
[St]
+11.8 +11.1 95 +10 +10 1013.6 1012.8
18 17.08 В 4-5
{6}
20 км 10/10 300 м
[St]
+11.8 +11.0 95 +10 +10 1013.8 1013.0
21 17.08 В 4-6
{7}
20 км 10/10 300 м
[St]
+12.1 +10.2 88 +10 +10 1013.7 1013.0 +11.6
00 18.08 В 4-6
{8}
20 км 10/10 300 м
[St]
+13.3 +11.2 87 +12 +12 1014.9 1014.2
03 18.08 В 5 20 км 10/10 300 м
[St]
+14.5 +10.5 77 +13 +13 1014.8 1014.1
06 18.08 В 5-8
{8}
20 км 10/10 300 м
[St]
+14.2 +10.8 80 +13 +13 1014.4 1013.7
09 18.08 В 4-6
{8}
20 км 10/10 300 м
[St]
+12.5 +11.4 93 +10 +10 1014.8 1014.1 +14.9
12 18.08 В 3-4
{6}
20 км 10/10
[St]
+11.8 +11.5 98 +10 +10 1015.7 1015.0
15 18.08 В 2-4
{5}
20 км {дождь} 10/10 300 м
[St]
+11.4 +11.4 100 +10 +10 1015.7 1015.0
18 18.08 В 2-3
{5}
20 км {дождь} 10/10 300 м
[St]
+11.2 +11.2 100 +10 +10 1016.2 1015.4
21 18.08 ЮВ 2-4
{4}
4000 м слаб. морось 10/10 300 м
[St]
+11.5 +11.5 100 +10 +10 1017.2 1016.5 +11.2 0.3
00 19.08 ЮВ 3-6
{7}
20 км {морось} 10/10 300 м
[St]
+13.6 +11.5 87 +12 +12 1017.5 1016.8
03 19.08 В 2-3
{6}
20 км 9/3 300 м
[St Ac As]
+16.9 +11.2 69 +17 +21 1016.8 1016.1

 

Местоположение метеостанции Москальво (Сахалинская область, Россия): широта 53.57 долгота 142.50 высота над уровнем моря 6 м.

В архиве по умолчанию представлена погода в Москальво за последнюю неделю. Архивные данные за месяц целиком и за предыдущие месяцы, начиная с января 2011 года, Вы можете получить, выбрав интересующий диапазон дат из раскрывающегося списка и нажав кнопку "Ввод!".


*Определитесь, кто Вы:
робот инопланетянин человек

Внимание! Время в таблицах - всемирное. Для получения местного времени необходимо прибавить поправку, которая равна 11 ч.

Смотрите также архив погоды в соседних городах и на ближайших метеорологических станциях:

Погода в Оха (Сахалинская область, Россия) (28 км)
Погода в Одопту (Сахалинская область, Россия) (50 км)
Погода в Байдукове (Хабаровский край, Россия) (79 км)
Погода в Ныврово (Сахалинская область, Россия) (85 км)
Погода в Николаевск-на-Амуре (Хабаровский край, Россия) (128 км)
Погода в Джаоре (Хабаровский край, Россия) (132 км)
Погода в Вале (Сахалинская область, Россия) (142 км)
Погода в Литке (Хабаровский край, Россия) (151 км)
Погода в Погибях (Сахалинская область, Россия) (162 км)
Погода в Ногликах (Сахалинская область, Россия) (188 км)

Пояснения к столбцам:

Ветер - указаны скорость ветра в м/с - средняя за 10 мин, порывы в срок и между сроками (в фигурных скобках) и направление, откуда дует ветер: С - северный, СВ - северо-восточный, В - восточный, ЮВ - юго-восточный, Ю - южный, ЮЗ - юго-западный, З - западный, СЗ - северо-западный.
Видимость - горизонтальная дальность видимости в метрах или километрах. При видимости от 1 до 10 км при отсутствии осадков обычно наблюдается дымка, при ухудшении видимости до 1 км и менее - туман. В сухую погоду видимость может ухудшаться дымом, пылью или мглою.
Явления - указаны атмосферные явления, наблюдавшиеся в срок или в последний час перед сроком; фигурными скобками обозначены явления, наблюдавшиеся между сроками (за 1-3 часа до срока); квадратными скобками обозначены град или гололедные отложения с указанием их диаметра в мм.
Облачность - указаны через наклонную черту общая и нижняя облачность в баллах и высота нижней границы облаков в метрах; квадратными скобками обозначены формы облаков: Ci - перистые, Cs - перисто-слоистые, Cc - перисто-кучевые, Ac - высококучевые, As - высокослоистые, Sc - слоисто-кучевые, Ns - слоисто-дождевые, Cu - кучевые, Cb - кучево-дождевые. Подробнее классификацию облаков см. в Атласе облаков (PDF).
T - Температура воздуха - температура, измеренная на высоте 2 м над землей.
Td - Температура точки росы - температура, при понижении до которой содержащийся в воздухе водяной пар достигнет насыщения.
f - Относительная влажность воздуха - влажноcть воздуха, измеренная на высоте 2 м над землей.
Te - Эффективная температура - температура, которую ощущает одетый по сезону человек в тени. Характеристика душности погоды. При расчете учитывается влияние влажности воздуха и скорости ветра на теплоощущения человека.
Tes - Эффективная температура на солнце - температура, которую ощущает человек, с поправкой на солнечный нагрев. Характеристика знойности погоды. Зависит от высоты солнца над горизонтом, облачности и скорости ветра. Ночью, в пасмурную погоду, а также при ветре 12 м/с и более поправка равна нулю.
P - Атмосферное давление - приведенное к уровню моря атмосферное давление.
Po - Атмосферное давление - измеренное на уровне метеостанции атмосферное давление.
Tmin - Минимальная температура - минимум температуры воздуха на высоте 2 м над землей.
Tmax - Максимальная температура - максимум температуры воздуха на высоте 2 м над землей.
R - Количество осадков - Количество выпавших осадков за период времени, мм. При наведении курсора мыши на число - период времени, за который выпало указанное количество осадков.
R24 - Количество осадков - Количество выпавших осадков за 24 часа, мм.
S - Снежный покров - Высота снежного покрова, см. При наведении курсора мыши на число - состояние снежного покрова и степень покрытия местности в баллах.